SL-12 DEB, 41560

Orbit data source: Space-Track

SL-12 DEB, 41560 is space debris in HEO originally from a launch on Thu, 25 Dec 2008 UTC launched from the Tyuratam Missile And Space Complex (TTMTR). Debris objects in space refer to the collection of defunct objects orbiting the Earth. Examples of debris include non-operational satellites, rocket bodies, and fragments generated from explosions, collisions, or faulty payload assembly.

Loading next visibility...
Identifier
41560, 2008-067J
Orbit
HEO
Country
Flag of CISCIS
Related business
Manufacturer
RKKE
Mission
Spacecraft
Bus & Motor
Unknown
Mass
Unknown
Launch date (UTC)
2008-12-25 (17 years ago)
Launch vehicle
Unknown
Launch site
Tyuratam Missile And Space Complex (TTMTR)
Object type
Payload
Rocket body
Debris
Shape & HBR
Unknown shape, 0.8 m
Radar Cross Section
Medium (>0.1 m² and <1 m²)

Expand to show TLE details & history
Last TLE update: 3 days ago

TLE from 3 days ago
0 SL-12 DEB
1 41560U 08067J   25303.33711132  .00000022  00000-0 -23694-3 0  9993
2 41560  65.3212 260.4498 5597710 249.5328  43.9723  4.22979573147960
Epoch: 2025-10-30T08:05Z
TLE epoch observation values (Epoch: 2025-10-30T08:05:26.418Z)
Latitude
0.00005°
Longitude
100.18155°
Altitude
7,421.696 km
Speed
5.753 km/s
True Right ascension
17h 21m 45s
True Declination
0° 00' 00"
Sunlit
Object was in daylight at epoch
Visualization orbit readout
Latitude
Unknown
Longitude
Unknown
Altitude
Unknown
Speed
Unknown
Apparent Right ascension
Unknown
Apparent Declination
Unknown
Sunlit
N/A
Visualization observer readout
Local Sidereal Time
21:39:10
Azimuth
Unknown
Elevation
Unknown
Doppler factor
Unknown
Orbital elements
Apogee altitude
18,811.348 km
Perigee altitude
731.331 km
Semi-major axis
16,149.476 km
Eccentricity
0.55977
Inclination
65.3212°
RAAN
260.4498°
Arg. of periapsis
249.5328°
True anomaly
110.55162°
Mean anomaly
43.9723°
Eccentric anomaly
74.94382°
Mean motion
1.05756 °/min
Orbital period
340.41 mins
BSTAR
-0.00023694
Loading maneuver chart data...
Computing Atmospheric mass density...
Loading historical data...
Loading historical data...
Loading historical data...
Loading historical data...
Loading historical data...
Loading historical data...
Loading historical data...

Documentation

Showing up to 5 results
|